Regional Weather Roundup
Issued by NWS

Home | Current Version | Previous Version | Text Only | Print | Product List | Glossary Off
Versions: 1 2 3 4 5 6 7 8 9 10 11 12 13 14 15 16 17 18 19 20 21 22 23 24 25 26 27 28 29 30 31 32 33 34 35 36 37 38 39 40 41 42 43 44 45 46 47 48 49 50

000
ASUS43 KLSX 230907
RWRMO

WEATHER SUMMARY FOR MISSOURI
NATIONAL WEATHER SERVICE SPRINGFIELD MO
400 AM CDT THU OCT 23 2014

NOTE: "FAIR" INDICATES FEW OR NO CLOUDS BELOW 12,000 FEET WITH NO
       SIGNIFICANT WEATHER AND/OR OBSTRUCTIONS TO VISIBILITY.
       CURRENT SKY AND/OR WEATHER CONDITIONS ARE NOT AVAILABLE FOR
       CHILLICOTHE AND FARMINGTON.

MOZ001>031-035>038-043-044-053-054-231000-
...NORTHERN AND WESTERN MISSOURI...

CITY           SKY/WX    TMP DP  RH WIND       PRES   REMARKS
KANSAS CTY INT LGT RAIN  57  56  96 NW5       30.12R
KANSAS C DTWN  CLOUDY    62  52  69 S8        30.11F
LEE`S SUMMIT   CLOUDY    58  50  75 S7        30.12S
ST JOSEPH      LGT RAIN  58  57  97 S10       30.10F FOG
CHILLICOTHE      N/A     55  45  68 S5        30.12F
KIRKSVILLE     MOCLDY    49  44  83 S8        30.14F

$$
MOZ066>068-077>081-088>096-101>105-231000-
...SOUTHWEST MISSOURI...

CITY           SKY/WX    TMP DP  RH WIND       PRES   REMARKS
SPRINGFIELD    CLOUDY    53  44  71 S10       30.15F
JOPLIN         CLOUDY    58  51  78 S6        30.14R

$$
MOZ032>034-039>042-045>050-055>058-069>072-231000-
...CENTRAL MISSOURI...

CITY           SKY/WX    TMP DP  RH WIND       PRES   REMARKS
COLUMBIA       PTCLDY    45  41  86 SE7       30.16F
JEFFERSON CITY PTCLDY    43  39  86 SE5       30.18S
ROLLA          CLEAR     44  39  82 SE9       30.17S
SEDALIA        MOCLDY    53  47  79 S9        30.14F
WHITEMAN AFB   MOCLDY    55  48  78 S8        30.12F
OSAGE BEACH    PTCLDY    46  41  81 SE5       30.17S

$$
MOZ051-052-059>065-231000-
...EAST CENTRAL MISSOURI...

CITY           SKY/WX    TMP DP  RH WIND       PRES   REMARKS
ST LOUIS INTL  PTCLDY    43  38  82 SE6       30.20F
SPIRIT OF STL  CLEAR     37  36  96 CALM      30.20S
ST CHARLES     CLEAR     42  39  89 CALM      30.20F

$$
MOZ072>076-082>087-097>100-106>115-231000-
...SOUTH CENTRAL AND SOUTHEAST MISSOURI...

CITY           SKY/WX    TMP DP  RH WIND       PRES   REMARKS
CAPE GIRARDEAU FOG       37  36  96 CALM      30.22R VSB 1/2
FARMINGTON     CLEAR     36  36 100 CALM      30.22S
POPLAR BLUFF   CLEAR     39  36  89 CALM      30.19F
WEST PLAINS    CLEAR     38  35  89 CALM      30.20S

$$



USA.gov is the U.S. government's official web portal to all federal, state and local government web resources and services.